Location: Karlskoga
(59.3269°N, 14.5116°E)
Time: 13:59:21
(UTC+01:00)

ISS - Pass Details

Date: 02 December 2021
Orbit: 413 x 422 km, 51.6° (Epoch: 18 January)

Event Time Altitude Azimuth Distance (km) Brightness Sun altitude
Rises 17:47:59 0° 260° (W) 2,386 1.8 -18.4°
Reaches altitude 10° 17:50:32 10° 241° (WSW) 1,516 0.2 -18.7°
Maximum altitude 17:52:56 18° 197° (SSW) 1,112 -1.3 -19.0°
Enters shadow 17:54:35 14° 162° (SSE) 1,315 -1.3 -19.2°
